Flag for U.S.A. Weather past 2 weeks in Bismarck, North Dakota, U.S.A.

Now
51 °F

Clear.


Feels Like: 51 °F
Forecast: 44 / 76 °F
Wind: 3 mph from East

Location: Bismarck Municipal Airport

Current Time: Sep 21, 2014 at 11:33:49 PM

Latest Report: Sep 21, 2014 at 10:52 PM


Visibility: 10 mi

Pressure: 30.22 "Hg

Humidity: 77%

Dew point: 44 °F

Location of BismarckLocation

Historic Weather in Bismarck — Graph

°F

Bismarck temperature yesterday

Maximum temperature yesterday: 73 °F (at 4:52 PM)
Minimum temperature yesterday: 52 °F (at 7:52 AM)
Average temperature yesterday: 62 °F

Past Weeks' High & Low Weather Summary

 TemperatureHumidityPressure
High90 °F (Sep 8, 4:52 PM)100% (Sep 8, 7:54 AM)30.54 "Hg (Sep 8, 7:54 AM)
Low31 °F (Sep 15, 6:52 AM)23% (Sep 8, 4:52 PM)29.57 "Hg (Sep 19, 4:52 AM)
Average56 °F67%30.06 "Hg
* Reported Sep 6 9:52 PM — Sep 21 9:52 PM, Bismarck, Weather by CustomWeather, © 2014

Note: Actual official high and low records may vary slightly from our data, if they occured in-between our weather recording intervals... More about our weather records

Advertising

Bismarck weather history for previous 24 hours

 ConditionsComfort  
Time TempWeatherWind HumidityBarometerVisibility
9:52 PM
Sep 21
53 °FClear.3 mph74%30.23 "Hg10 mi
8:52 PM58 °FClear.3 mph60%30.23 "Hg10 mi
7:52 PM61 °FSunny.3 mph54%30.23 "Hg10 mi
6:52 PM71 °FSunny.No wind36%30.22 "Hg10 mi
5:52 PM73 °FSunny.7 mph32%30.22 "Hg10 mi
4:52 PM75 °FSunny.6 mph28%30.23 "Hg10 mi
3:52 PM74 °FSunny.9 mph31%30.24 "Hg10 mi
2:52 PM74 °FSunny.6 mph33%30.26 "Hg10 mi
1:52 PM72 °FSunny.6 mph40%30.27 "Hg10 mi
12:52 PM70 °FSunny.7 mph41%30.29 "Hg10 mi
11:52 AM66 °FSunny.3 mph50%30.30 "Hg10 mi
10:52 AM61 °FSunny.5 mph58%30.31 "Hg10 mi
9:52 AM57 °FSunny.5 mph60%30.30 "Hg10 mi
8:52 AM51 °FSunny.8 mph71%30.29 "Hg10 mi
7:52 AM47 °FClear.6 mph83%30.27 "Hg10 mi
6:52 AM48 °FClear.6 mph80%30.25 "Hg10 mi
5:52 AM48 °FClear.8 mph80%30.23 "Hg10 mi
4:52 AM49 °FClear.10 mph77%30.20 "Hg10 mi
3:52 AM50 °FClear.7 mph74%30.19 "Hg10 mi
2:52 AM50 °FClear.8 mph74%30.17 "Hg10 mi
1:52 AM51 °FClear.6 mph71%30.15 "Hg10 mi
12:52 AM55 °FClear.9 mph59%30.15 "Hg10 mi
11:52 PM
Sep 20
58 °FClear.12 mph51%30.14 "Hg10 mi
Weather by CustomWeather, © 2014

See weather overviewHow to use our weather pages